Weather reports worldwide

Advertisment
Amberieu, France (7482): temperature & dewpoint: 06.12.2018 00:00:00 - 12.12.2018 00:00:00 (CET)Amberieu, France (7482): temperature 5cm: 06.12.2018 00:00:00 - 12.12.2018 00:00:00 (CET)Amberieu, France (7482): temperature -20cm & temperature -100cm: 06.12.2018 00:00:00 - 12.12.2018 00:00:00 (CET)Amberieu, France (7482): wind speed & gusts: 06.12.2018 00:00:00 - 12.12.2018 00:00:00 (CET)Amberieu, France (7482): wind direction: 06.12.2018 00:00:00 - 12.12.2018 00:00:00 (CET)Amberieu, France (7482): reduced air pressure: 06.12.2018 00:00:00 - 12.12.2018 00:00:00 (CET)Amberieu, France (7482): visibility: 06.12.2018 00:00:00 - 12.12.2018 00:00:00 (CET)Amberieu, France (7482): sunshine duration: 06.12.2018 00:00:00 - 12.12.2018 00:00:00 (CET)Amberieu, France (7482): precipitation: 06.12.2018 00:00:00 - 12.12.2018 00:00:00 (CET)
Date & Time tt [°C] td [°C] tt 5cm [°C] tt -20cm [°C] tt -100cm [°C] ff [km/h] ff [kn] fx [km/h] fx [kn] dd ppp [hPa] vv [km] sd [min] rr [mm]
12.12.2018 00:00:00 -1,1 -1,8 -3,5 9,4 11,3 6 3 10 5 NNE 1024,5 20 0 0,0
11.12.2018 23:00:00 -1,2 -1,8 -3,5 9,4 11,3 5 3 11 6 E 1024,5 20 0 0,0
11.12.2018 22:00:00 -1,3 -2,1 -3,6 9,4 11,3 6 4 10 6 NNE 1024,4 20 0 0,0
11.12.2018 21:00:00 -0,5 -2,4 -1,6 9,5 11,3 9 5 16 8 NNE 1024,3 20 0 0,0
11.12.2018 20:00:00 0,2 -1,6 -1,0 9,5 11,3 10 5 14 7 NE 1024,4 20 0 0,0
11.12.2018 19:00:00 0,7 -1,1 -1,2 9,5 11,3 9 5 15 8 N 1024,2 20 0 0,0
11.12.2018 18:00:00 2,5 -0,9 -0,2 9,5 11,3 12 6 18 10 NNE 1024,0 20 0 0,0
11.12.2018 17:00:00 4,1 -0,7 2,8 9,5 11,3 13 7 22 12 N 1023,9 20 23 0,0
11.12.2018 16:00:00 7,0 -0,2 7,7 9,5 11,3 15 8 24 13 N 1023,9 20 36 0,0
11.12.2018 15:00:00 7,8 0,3 8,5 9,5 11,3 17 9 29 16 N 1024,0 20 48 0,0
11.12.2018 14:00:00 8,2 0,7 8,7 9,5 11,3 21 11 34 19 N 1024,0 20 55 0,0
11.12.2018 13:00:00 7,8 1,6 11,0 9,6 11,3 24 13 36 19 N 1024,4 20 60 0,0
11.12.2018 12:00:00 6,3 4,5 8,2 9,6 11,3 19 10 25 14 N 1025,1 20 60 0,0
11.12.2018 11:00:00 5,0 4,4 4,0 9,6 11,3 15 8 22 12 NNW 1026,0 17 18 0,0
11.12.2018 10:00:00 3,5 3,2 1,8 9,7 11,3 15 8 21 11 NNE 1026,0 5 37 0,0
11.12.2018 09:00:00 2,1 2,0 0,5 9,7 11,3 15 8 18 10 N 1026,3 6 12 0,0
11.12.2018 08:00:00 2,5 2,4 0,5 9,7 11,3 13 7 16 9 N 1026,5 9 0 0,0
11.12.2018 07:00:00 2,8 2,5 1,6 9,7 11,3 11 6 18 10 N 1026,7 8 0 0,0
11.12.2018 06:00:00 3,7 3,6 1,7 9,7 11,3 12 6 18 10 N 1026,9 10 0 0,0
11.12.2018 05:00:00 4,0 3,6 3,3 9,8 11,3 9 5 12 6 N 1026,9 13 0 0,0
11.12.2018 04:00:00 4,8 4,5 4,8 9,7 11,3 5 3 7 4 N 1027,2 5 0 0,0
11.12.2018 03:00:00 5,0 4,9 4,8 9,8 11,3 3 1 5 3 N 1027,5 3,0 0 0,0
11.12.2018 02:00:00 4,8 4,5 4,8 9,8 11,4 2 1 5 3 N 1027,6 3,3 0 0,0
11.12.2018 01:00:00 4,8 4,5 4,6 9,8 11,4 4 2 6 4 N 1028,3 10 0 0,0
11.12.2018 00:00:00 4,7 4,3 4,2 9,8 11,3 4 2 10 5 N 1028,6 7 0 0,2
10.12.2018 23:00:00 4,5 3,9 2,3 9,8 11,3 4 2 8 5 N 1028,8 18 0 0,0
10.12.2018 22:00:00 5,0 4,3 4,1 9,8 11,4 5 3 8 5 N 1028,7 15 0 0,0
10.12.2018 21:00:00 5,7 4,8 5,4 9,8 11,4 5 3 8 4 NNE 1029,0 20 0 0,0
10.12.2018 20:00:00 5,8 5,1 5,5 9,8 11,3 2 1 8 4 NE 1029,2 20 0 0,0
10.12.2018 19:00:00 5,7 5,0 5,6 9,8 11,4 3 1 7 4 N 1029,2 19 0 0,8
10.12.2018 18:00:00 6,0 5,0 5,6 9,7 11,4 6 4 10 5 NE 1028,9 8 0 1,0
10.12.2018 17:00:00 6,2 5,0 5,9 9,7 11,4 8 4 41 22 NNE 1028,8 20 4 0,6
10.12.2018 16:00:00 8,7 4,3 9,1 9,7 11,4 11 6 17 9 NW 1028,2 20 17 0,0
10.12.2018 15:00:00 8,3 4,5 9,2 9,8 11,4 10 5 23 13 NW 1028,4 20 2 0,0
10.12.2018 14:00:00 8,7 5,1 8,9 9,7 11,4 12 6 30 16 WNW 1028,3 20 9 0,0
10.12.2018 13:00:00 8,8 5,0 9,8 9,7 11,4 11 6 24 13 NNW 1028,7 20 11 0,0
10.12.2018 12:00:00 8,7 5,3 9,4 9,8 11,4 11 6 21 11 NNW 1029,3 20 17 0,0
10.12.2018 11:00:00 7,8 5,4 7,7 9,8 11,4 5 3 11 6 NNE 1029,7 20 11 0,0
10.12.2018 10:00:00 6,8 5,6 6,5 9,8 11,4 6 4 12 7 NNE 1029,6 20 2 0,2
10.12.2018 09:00:00 6,6 4,9 5,7 9,8 11,4 2 1 7 4 N 1029,0 20 0 0,0
10.12.2018 08:00:00 6,0 4,8 5,6 9,8 11,4 3 2 8 4 ESE 1028,4 20 0 0,0
10.12.2018 07:00:00 5,9 4,9 5,4 9,8 11,4 4 2 11 6 NE 1028,1 20 0 0,0
10.12.2018 06:00:00 5,9 5,0 4,4 9,8 11,4 4 2 12 6 NE 1027,7 20 0 0,0
10.12.2018 05:00:00 6,2 4,8 5,4 9,9 11,4 9 5 25 13 N 1027,5 20 0 0,4
10.12.2018 04:00:00 6,7 5,6 6,3 9,9 11,4 7 4 24 13 NNW 1027,4 20 0 0,0
10.12.2018 03:00:00 7,1 5,7 6,4 9,9 11,4 13 7 36 20 NW 1027,0 18 0 0,8
10.12.2018 02:00:00 7,3 5,8 6,3 9,8 11,4 10 5 26 14 WNW 1025,8 20 0 0,2
10.12.2018 01:00:00 7,7 5,7 6,4 9,9 11,4 9 5 23 12 NW 1025,6 20 0 0,0
10.12.2018 00:00:00 7,2 6,1 6,4 9,9 11,4 3 1 8 4 SE 1025,3 20 0 0,2
09.12.2018 23:00:00 7,7 6,0 6,5 9,9 11,4 9 5 27 15 NNW 1024,5 20 0 0,6
09.12.2018 22:00:00 8,0 6,6 7,5 9,8 11,4 8 4 26 14 NNW 1023,8 12 0 0,8
09.12.2018 21:00:00 9,1 5,6 7,4 9,8 11,4 16 8 29 15 WNW 1022,7 20 0 0,4
09.12.2018 20:00:00 9,1 5,6 7,5 9,8 11,4 14 8 27 15 WNW 1022,3 14 0 0,2
09.12.2018 19:00:00 8,2 5,0 8,1 9,8 11,4 12 7 18 10 S 1021,5 20 0 0,0
09.12.2018 18:00:00 8,8 4,8 8,4 9,9 11,4 9 5 21 11 SSW 1021,1 20 0 0,0
09.12.2018 17:00:00 9,1 4,5 8,0 9,9 11,4 8 4 19 10 SW 1020,5 20 0 0,0
09.12.2018 16:00:00 10,2 4,6 8,5 9,8 11,4 11 6 39 21 WNW 1019,8 20 7 0,0
09.12.2018 15:00:00 9,4 4,6 8,1 9,8 11,4 12 6 30 16 SW 1019,2 20 0 0,2
09.12.2018 14:00:00 10,3 3,6 10,9 9,8 11,4 12 6 26 14 SW 1019,3 20 2 0,0
09.12.2018 13:00:00 10,6 4,3 10,1 9,8 11,4 9 5 23 13 W 1019,6 20 22 0,0
09.12.2018 12:00:00 8,8 4,2 8,8 9,9 11,4 11 6 32 17 SW 1020,3 20 0 0,0
09.12.2018 11:00:00 9,0 4,2 7,7 9,8 11,4 5 3 24 13 WSW 1020,6 20 0 0,0
09.12.2018 10:00:00 8,7 4,3 7,7 9,8 11,4 13 7 40 22 W 1019,3 20 0 0,0
09.12.2018 09:00:00 8,7 6,0 7,3 9,9 11,4 6 3 16 9 SE 1018,0 20 0 0,4
09.12.2018 08:00:00 8,0 6,5 7,1 9,9 11,4 8 4 16 9 S 1018,6 20 0 0,0
09.12.2018 07:00:00 8,7 6,3 7,4 9,9 11,4 16 9 29 16 SW 1018,5 20 0 0,0
09.12.2018 06:00:00 8,9 7,2 7,6 9,9 11,4 10 6 21 12 SE 1017,6 20 0 0,6
09.12.2018 05:00:00 7,9 7,0 7,6 9,9 11,4 3 2 25 14 ENE 1018,4 5 0 2,2
09.12.2018 04:00:00 9,6 6,5 8,2 9,9 11,4 19 11 47 25 SSW 1017,8 12 0 0,2
09.12.2018 03:00:00 11,1 5,0 10,6 9,9 11,4 22 12 39 21 S 1017,1 20 0 0,0
09.12.2018 02:00:00 11,3 4,7 10,7 9,9 11,4 25 14 48 26 SSE 1017,4 20 0 0,0
09.12.2018 01:00:00 10,9 4,8 10,2 9,9 11,4 24 13 54 29 SSE 1018,1 20 0 0,0
09.12.2018 00:00:00 10,6 4,7 8,2 9,9 11,4 25 14 49 27 S 1018,5 20 0 0,0
08.12.2018 23:00:00 9,1 5,8 7,5 9,9 11,4 19 10 39 21 SSE 1019,4 20 0 0,2
08.12.2018 22:00:00 8,7 5,6 8,1 9,9 11,4 17 9 38 20 SSE 1020,2 20 0 0,0
08.12.2018 21:00:00 9,1 4,7 7,1 9,9 11,4 21 12 40 22 SSE 1020,6 20 0 0,2
08.12.2018 20:00:00 8,5 4,3 6,9 9,9 11,4 11 6 26 14 SSE 1021,4 20 0 0,0
08.12.2018 19:00:00 7,9 4,7 6,7 10,0 11,4 10 5 24 13 SSE 1022,1 20 0 0,0
08.12.2018 18:00:00 8,3 4,1 6,9 9,9 11,4 11 6 28 15 SSE 1022,5 20 0 0,0
08.12.2018 17:00:00 7,9 4,3 6,7 10,0 11,4 12 7 27 15 SSE 1023,1 20 0 0,0
08.12.2018 16:00:00 7,8 4,7 6,8 10,0 11,4 11 6 25 14 SSE 1023,6 20 0 0,2
08.12.2018 15:00:00 7,7 5,2 6,9 10,0 11,4 8 5 19 11 S 1024,3 16 0 0,2
08.12.2018 14:00:00 7,8 4,0 7,2 10,0 11,4 11 6 34 18 SSE 1024,3 20 0 0,2
08.12.2018 13:00:00 8,2 4,8 8,4 10,0 11,4 13 7 26 14 S 1024,6 20 0 0,0
08.12.2018 12:00:00 7,4 4,4 6,8 10,1 11,3 11 6 22 12 SSE 1025,1 20 0 0,2
08.12.2018 11:00:00 6,9 4,4 5,8 10,1 11,3 13 7 26 14 S 1025,1 17 0 0,2
08.12.2018 10:00:00 5,9 4,4 5,2 10,1 11,3 9 5 17 9 SE 1025,3 12 0 0,2
08.12.2018 09:00:00 5,1 4,1 4,4 10,1 11,3 8 4 16 8 SE 1025,1 20 0 0,4
08.12.2018 08:00:00 4,6 3,7 3,8 10,2 11,4 5 3 10 6 SE 1024,9 20 0 0,0
08.12.2018 07:00:00 4,3 3,6 1,3 10,2 11,4 6 3 13 7 SSW 1024,7 20 0 0,0
08.12.2018 06:00:00 3,6 2,9 1,2 10,2 11,3 5 3 11 6 SSE 1024,5 20 0 0,0
08.12.2018 05:00:00 3,5 3,1 -0,3 10,2 11,3 4 2 8 4 S 1024,4 20 0 0,0
08.12.2018 04:00:00 3,6 2,4 0,1 10,2 11,3 5 3 8 4 SSW 1024,7 20 0 0,0
08.12.2018 03:00:00 5,1 3,8 3,8 10,2 11,3 6 3 11 6 S 1024,1 20 0 0,0
08.12.2018 02:00:00 5,6 3,9 4,3 10,2 11,3 5 3 9 5 E 1023,7 20 0 0,0
08.12.2018 01:00:00 6,0 3,8 3,3 10,2 11,3 4 2 14 8 SE 1023,7 20 0 0,0
08.12.2018 00:00:00 5,9 3,1 3,5 10,2 11,3 5 3 14 8 ENE 1023,4 20 0 0,0
07.12.2018 23:00:00 6,0 4,2 5,0 10,2 11,3 10 5 59 32 NNW 1022,9 20 0 0,4
07.12.2018 22:00:00 8,5 6,1 7,4 10,2 11,3 8 5 16 9 SSW 1020,8 20 0 0,0
07.12.2018 21:00:00 9,0 7,6 7,9 10,1 11,3 9 5 27 15 S 1019,7 20 0 0,2
07.12.2018 20:00:00 9,5 6,4 8,3 10,1 11,3 21 11 37 20 W 1019,0 6 0 2,4
07.12.2018 19:00:00 11,5 8,0 9,9 10,1 11,3 15 8 36 19 S 1017,1 20 0 0,2
07.12.2018 18:00:00 12,5 7,4 11,4 10,1 11,3 15 8 33 18 S 1016,6 20 0 0,0
07.12.2018 17:00:00 12,4 8,1 12,0 10,0 11,3 15 8 29 16 S 1016,4 20 0 0,0
07.12.2018 16:00:00 12,5 8,2 12,6 10,1 11,3 16 9 34 18 S 1016,3 20 24 0,0
07.12.2018 15:00:00 12,9 8,6 14,1 10,0 11,3 15 8 32 17 S 1016,7 20 49 0,0
07.12.2018 14:00:00 12,3 8,6 13,2 10,0 11,3 13 7 27 15 SSE 1018,0 20 7 0,0
07.12.2018 13:00:00 12,0 9,0 12,8 10,0 11,3 14 8 22 12 S 1020,3 20 5 0,0
07.12.2018 12:00:00 11,3 9,7 10,8 10,0 11,3 8 4 18 10 S 1020,6 20 1 0,0
07.12.2018 11:00:00 9,9 9,0 10,7 10,0 11,3 11 6 21 11 S 1021,8 20 0 0,0
07.12.2018 10:00:00 9,7 9,4 9,4 10,0 11,3 13 7 21 11 SSW 1021,7 15 0 0,0
07.12.2018 09:00:00 8,9 8,8 8,8 10,0 11,3 2 1 11 6 S 1022,3 3,7 0 0,0
07.12.2018 08:00:00 8,9 8,8 8,7 10,0 11,3 3 2 8 5 SW 1023,1 3,1 0 0,0
07.12.2018 07:00:00 8,8 8,7 8,7 10,0 11,3 5 3 8 5 S 1023,9 3,3 0 0,0
07.12.2018 06:00:00 9,0 8,9 8,8 10,0 11,3 6 3 10 5 S 1023,8 3,3 0 0,0
07.12.2018 05:00:00 9,1 9,0 8,8 10,0 11,3 3 2 8 4 N 1024,1 0,3 0 0,0
07.12.2018 04:00:00 9,1 9,0 8,8 9,9 11,3 0 0 6 4 N 1024,5 0,3 0 0,0
07.12.2018 03:00:00 9,1 9,0 9,0 9,9 11,3 4 2 10 5 NNE 1025,4 0,3 0 0,0
07.12.2018 02:00:00 9,3 9,2 8,1 9,9 11,3 0 0 5 3 N 1025,8 0,5 0 0,0
07.12.2018 01:00:00 9,3 9,2 8,3 9,9 11,3 3 2 6 4 NE 1026,2 0,5 0 0,0
07.12.2018 00:00:00 9,8 9,5 9,6 9,9 11,3 2 1 13 7 WNW 1026,6 4,3 0 0,0
06.12.2018 23:00:00 10,0 9,8 10,0 9,9 11,3 5 3 9 5 S 1026,7 2,7 0 0,8
06.12.2018 22:00:00 10,0 9,8 9,9 9,8 11,3 5 3 10 6 S 1026,8 2,8 0 0,0
06.12.2018 21:00:00 10,1 9,8 9,7 9,8 11,3 3 1 10 5 S 1026,6 6 0 0,0
06.12.2018 20:00:00 10,4 10,1 10,0 9,8 11,3 2 1 6 3 E 1026,8 3,7 0 0,4
06.12.2018 19:00:00 10,5 10,2 10,4 9,7 11,3 4 2 10 5 SW 1026,4 3,5 0 0,2
06.12.2018 18:00:00 10,6 10,1 10,3 9,7 11,3 5 3 13 7 S 1025,5 17 0 0,0
06.12.2018 17:00:00 10,7 9,9 10,6 9,7 11,3 11 6 15 8 SSW 1025,0 20 10 0,0
06.12.2018 16:00:00 11,7 10,6 11,9 9,7 11,3 5 3 10 5 SSW 1024,9 20 1 0,0
06.12.2018 15:00:00 12,0 10,6 13,2 9,7 11,3 4 2 9 5 S 1024,7 20 7 0,0
06.12.2018 14:00:00 11,8 11,2 12,0 9,7 11,3 2 1 9 5 SSE 1024,8 19 0 0,4
06.12.2018 13:00:00 11,3 10,5 11,9 9,7 11,3 0 0 12 7 N 1024,9 15 0 0,0
06.12.2018 12:00:00 10,5 10,0 11,3 9,7 11,3 11 6 15 8 S 1024,9 18 0 0,0
06.12.2018 11:00:00 10,4 10,1 10,1 9,6 11,3 5 3 14 8 S 1024,8 6 0 0,2
06.12.2018 10:00:00 9,8 9,3 9,7 9,7 11,3 2 1 16 9 S 1024,6 3,4 0 2,5
06.12.2018 09:00:00 9,9 9,3 9,4 9,7 11,3 5 3 16 9 SSW 1023,6 9 0 0,2
06.12.2018 08:00:00 9,6 9,0 9,2 9,7 11,3 5 3 14 7 SE 1022,8 3,7 0 1,2
06.12.2018 07:00:00 9,8 8,9 9,3 9,6 11,3 5 3 18 10 S 1022,2 3,4 0 2,2
06.12.2018 06:00:00 9,9 8,7 9,1 9,7 11,3 10 5 18 10 S 1022,0 10 0 0,6
06.12.2018 05:00:00 9,5 8,1 8,8 9,7 11,3 8 4 17 9 S 1021,9 20 0 0,0
06.12.2018 04:00:00 9,9 8,0 8,6 9,6 11,3 9 5 24 13 SSE 1021,9 20 0 0,0
06.12.2018 03:00:00 9,3 7,7 8,5 9,7 11,3 9 5 29 16 S 1023,0 10 0 0,8
06.12.2018 02:00:00 9,5 6,9 8,1 9,7 11,3 14 8 23 13 S 1023,0 17 0 0,8
06.12.2018 01:00:00 11,0 5,1 9,4 9,6 11,3 11 6 24 13 S 1022,2 20 0 0,0
06.12.2018 00:00:00 10,6 4,5 9,6 9,7 11,3 18 10 34 18 S 1022,6 20 0 0,0

tt = temperature
td = dewpoint
tt 5cm = temperature 5cm
tt -20cm = temperature -20cm
tt -100cm = temperature -100cm
ff = wind speed
fx = gusts
dd = wind direction
ppp = reduced air pressure
vv = visibility
sd = sunshine duration
rr = precipitation

Next stations